COSMOS 1660

导读 | 星芒AI

COSMOS 1660 是苏联于1985年4月12日发射的一颗气象卫星,属于“流星”系列。该卫星主要用于气象观测,搭载了多种遥感设备,能够收集云层覆盖、地表温度和大气参数等数据,为天气预报和气候研究提供支持。它运行在近地轨道,设计寿命约为3年。COSMOS 1660 的发射体现了苏联在气象卫星技术方面的持续发展,为全球气象监测网络作出了贡献。

基本信息
目录编号:
15821
目录名称:
COSMOS 1660
国际标识:
1985-047A
轨道中心:
EARTH
卫星名称:
COSMOS 1660
卫星全名:
--
卫星状态:
在轨 (已飞行14749 天)
发射日期:
1985-06-14 UTC
国别 :
俄罗斯(独联体) (CIS)
星等 :
--
轨道信息
数据来源 国际轨道数据 AOE轨道数据
星历时间 2025-10-31T08:45:14+0800
12小时前
查看轨道信息
2025-10-30T17:00:00+0800
1天前
查看轨道信息
半长轴 7881.367km 7881.367km
偏心率 0.0026975 0.0027067
轨道倾角 73.622° 73.623°
近地点辐角 34.824° 35.645°
升交点赤经 132.080° 132.958°
平近点角 125.981° 74.019°
近地点 1481.972km 1481.899km
远地点 1524.492km 1524.565km
周期 116.055分钟 116.055分钟
每日圈数 12.407962 12.407962
详细信息
使用方式:
暂无
2D轨道图
3D轨道图
轨道高度分析图
轨道倾角分析图
轨道综合分析图
查看轨道综合分析图